NIMIQ 2

Last updated on Fri Jul 11 2025 00:02:42 GMT+0000 (Coordinated Universal Time)

1 27632U 02062A 25191.44452096 -.00000062 00000+0 00000+0 0 9999 2 27632 8.6483 60.4323 0005606 44.8113 234.2001 1.00273041 40753
UTC large
Height (km)
Speed (km/s)
/
Latitude / Longitude
Inclination (degrees)
Orbital Period (minutes)
Azimuth
Elevation
Range (km)
Doppler Factor

Next 0 passes for location: London (51.5072 / 0.1276)

Sorry there are no passes over London.